Location: Unspecified
(34.4950°S, 58.5160°W)
Time: 15:08:45
(UTC+00:00)

BlueWalker 3 - Pass Details

Date: 17 February 2026
Orbit: 451 x 458 km, 53.2° (Epoch: 4 March)

Event Time Altitude Azimuth Distance (km) Brightness Sun altitude
Rises 00:44:05 0° 291° (WNW) 2,467 5.9 -22.9°
Reaches altitude 10° 00:46:25 10° 278° (W) 1,601 5.1 -23.3°
Maximum altitude 00:49:34 28° 218° (SW) 904 3.8 -23.8°
Drops below altitude 10° 00:52:45 10° 157° (SSE) 1,620 4.6 -24.4°
Enters shadow 00:53:04 - 154° (SSE) 1,728 4.8 -24.4°
